Time_in_sec,gx,gy,gz
1314273398.60146546,0.02946125,0.01859253,-0.99939299
1314273398.65428901,0.02950626,0.01857862,-0.99939192
1314273398.69436073,0.02933023,0.01864331,-0.99939590
1314273398.75242639,0.02910446,0.01858751,-0.99940354
1314273398.80244827,0.02870716,0.01883914,-0.99941032
1314273398.85246134,0.02875349,0.01896971,-0.99940652
1314273398.90448356,0.02873511,0.01886467,-0.99940903
1314273398.94448018,0.02886198,0.01887705,-0.99940514
1314273399.00517797,0.02837871,0.01896488,-0.99941732
1314273399.05382776,0.02820178,0.01824428,-0.99943574
1314273399.10160255,0.02802473,0.01832301,-0.99943928
1314273399.15360522,0.02809728,0.01838870,-0.99943604
1314273399.19365239,0.02804755,0.01834955,-0.99943816
1314273399.25249624,0.02780743,0.01836226,-0.99944463
1314273399.30447006,0.02707240,0.01761572,-0.99947825
1314273399.35249305,0.02716755,0.01772891,-0.99947367
1314273399.40446067,0.02726903,0.01773595,-0.99947078
1314273399.45402837,0.02710107,0.01772798,-0.99947549
1314273399.50549746,0.02655556,0.01778575,-0.99948910
1314273399.55260158,0.02641550,0.01782669,-0.99949209
1314273399.60450411,0.02621453,0.01778483,-0.99949812
1314273399.65313101,0.02643607,0.01755050,-0.99949643
1314273399.69356298,0.02638622,0.01762190,-0.99949649
1314273399.75246096,0.02609417,0.01759944,-0.99950455
1314273399.80449128,0.02654679,0.01742958,-0.99949561
1314273399.85398936,0.02652687,0.01743301,-0.99949608
1314273399.90161228,0.02644043,0.01726715,-0.99950125
1314273399.94459057,0.02646361,0.01712487,-0.99950308
1314273400.00242233,0.02598029,0.01735903,-0.99951172
1314273400.05360413,0.02701071,0.01657447,-0.99949773
1314273400.10161185,0.02710635,0.01693231,-0.99948914
1314273400.15249348,0.02752798,0.01661548,-0.99948293
1314273400.19347906,0.02762725,0.01668243,-0.99947908
1314273400.25373316,0.02721417,0.01665702,-0.99949084
1314273400.30560803,0.02793699,0.01743270,-0.99945767
1314273400.35361862,0.02786695,0.01710904,-0.99946521
1314273400.40175629,0.02804271,0.01727155,-0.99945750
1314273400.44461489,0.02815210,0.01737579,-0.99945262
1314273400.50161552,0.02818569,0.01714186,-0.99945571
1314273400.55349350,0.02779838,0.01692043,-0.99947033
1314273400.60542369,0.02787336,0.01682167,-0.99946991
1314273400.65361476,0.02775718,0.01694655,-0.99947104
1314273400.69246244,0.02752408,0.01708465,-0.99947513
1314273400.75261617,0.02719795,0.01714645,-0.99948300
1314273400.79647756,0.02687334,0.01667220,-0.99949981
1314273400.85261703,0.02695380,0.01651219,-0.99950030
1314273400.90160656,0.02691071,0.01659142,-0.99950014
1314273400.95257759,0.02674309,0.01665320,-0.99950362
1314273401.00151563,0.02637006,0.01665174,-0.99951355
1314273401.05348349,0.02533430,0.01653954,-0.99954220
1314273401.10160375,0.02520065,0.01665675,-0.99954364
1314273401.15359187,0.02523268,0.01659371,-0.99954388
1314273401.19423890,0.02522013,0.01671132,-0.99954223
1314273401.25351834,0.02484300,0.01667267,-0.99955232
1314273401.30159402,0.02415208,0.01708479,-0.99956230
1314273401.35249901,0.02433127,0.01693746,-0.99956046
1314273401.40153456,0.02446535,0.01695828,-0.99955683
1314273401.45432663,0.02454078,0.01678605,-0.99955789
1314273401.50148463,0.02436811,0.01676600,-0.99956245
1314273401.55354095,0.02396092,0.01579807,-0.99958806
1314273401.60218787,0.02398172,0.01564989,-0.99958989
1314273401.65347147,0.02410345,0.01583861,-0.99958399
1314273401.70452046,0.02410195,0.01573962,-0.99958559
1314273401.75245953,0.02367560,0.01564365,-0.99959729
1314273401.80451226,0.02416454,0.01535492,-0.99959007
1314273401.85395432,0.02437817,0.01533212,-0.99958523
1314273401.90551829,0.02444530,0.01542914,-0.99958210
1314273401.94543886,0.02471923,0.01510725,-0.99958028
1314273402.00222278,0.02432911,0.01523299,-0.99958794
1314273402.05360532,0.02503888,0.01475586,-0.99957757
1314273402.10134816,0.02509527,0.01473215,-0.99957651
1314273402.15346384,0.02543233,0.01465808,-0.99956908
1314273402.20161414,0.02558261,0.01463091,-0.99956564
1314273402.25375295,0.02574406,0.01464768,-0.99956125
1314273402.30458093,0.02558766,0.01528034,-0.99955579
1314273402.35360169,0.02549681,0.01517698,-0.99955969
1314273402.40448618,0.02560691,0.01513449,-0.99955752
1314273402.45360589,0.02517864,0.01520841,-0.99956728
1314273402.50161052,0.02496794,0.01541824,-0.99956935
1314273402.55249286,0.02524002,0.01514259,-0.99956673
1314273402.60161591,0.02547601,0.01533463,-0.99955781
1314273402.65368891,0.02568464,0.01539655,-0.99955152
1314273402.70160961,0.02579147,0.01550027,-0.99954717
1314273402.75360680,0.02565689,0.01536260,-0.99955276
1314273402.80450320,0.02598619,0.01554664,-0.99954140
1314273402.85360909,0.02612984,0.01562749,-0.99953640
1314273402.90161633,0.02599784,0.01557516,-0.99954066
1314273402.95246458,0.02587821,0.01542126,-0.99954615
1314273403.00159955,0.02550686,0.01541329,-0.99955582
1314273403.05378389,0.02511257,0.01517504,-0.99956945
1314273403.10448337,0.02510072,0.01508495,-0.99957111
1314273403.15362382,0.02488403,0.01510771,-0.99957618
1314273403.20684814,0.02480751,0.01524480,-0.99957600
1314273403.25266504,0.02461815,0.01550426,-0.99957669
1314273403.30577946,0.02545929,0.01447327,-0.99957108
1314273403.35246968,0.02550428,0.01441223,-0.99957082
1314273403.40562320,0.02532837,0.01427973,-0.99957719
1314273403.45363092,0.02533437,0.01413709,-0.99957907
1314273403.50157762,0.02578469,0.01349315,-0.99957645
1314273403.55363321,0.02581543,0.01364245,-0.99957363
1314273403.60465527,0.02585911,0.01382657,-0.99956997
1314273403.65259671,0.02582060,0.01395175,-0.99956923
1314273403.70164037,0.02584285,0.01397376,-0.99956835
1314273403.75249410,0.02539576,0.01409229,-0.99957814
1314273403.80172205,0.02590728,0.01384133,-0.99956852
1314273403.85361171,0.02595410,0.01382686,-0.99956751
1314273403.90061712,0.02584136,0.01376896,-0.99957123
1314273403.94455194,0.02590130,0.01384797,-0.99956859
1314273404.00326824,0.02573939,0.01388435,-0.99957226
1314273404.05253863,0.02577455,0.01380118,-0.99957251
1314273404.10052633,0.02598237,0.01364703,-0.99956924
1314273404.15248036,0.02611637,0.01338590,-0.99956928
1314273404.20150232,0.02603361,0.01330434,-0.99957253
1314273404.25349331,0.02581109,0.01318347,-0.99957990
1314273404.30045533,0.02519270,0.01312403,-0.99959646
1314273404.35346889,0.02494578,0.01338700,-0.99959917
1314273404.40236044,0.02504521,0.01322730,-0.99959881
1314273404.45245624,0.02521543,0.01326548,-0.99959402
1314273404.50145650,0.02499445,0.01319306,-0.99960053
1314273404.55244565,0.02532674,0.01290347,-0.99959595
1314273404.60446525,0.02535299,0.01285124,-0.99959595
1314273404.65402842,0.02536507,0.01287583,-0.99959533
1314273404.70148897,0.02550368,0.01303246,-0.99958977
1314273404.75248384,0.02552702,0.01309626,-0.99958834
1314273404.80217433,0.02542314,0.01329773,-0.99958833
1314273404.85347795,0.02527691,0.01355071,-0.99958864
1314273404.90148735,0.02516388,0.01344580,-0.99959291
1314273404.95268536,0.02513439,0.01360708,-0.99959147
1314273405.00470328,0.02585386,0.01313713,-0.99957941
1314273405.05396652,0.02579666,0.01331679,-0.99957851
1314273405.10447907,0.02602337,0.01328016,-0.99957312
1314273405.15267587,0.02623463,0.01288846,-0.99957272
1314273405.20446253,0.02636067,0.01299701,-0.99956800
1314273405.25249171,0.02621973,0.01310160,-0.99957034
1314273405.30549979,0.02690834,0.01316181,-0.99955125
1314273405.35248208,0.02688426,0.01328656,-0.99955025
1314273405.40162659,0.02677352,0.01313906,-0.99955517
1314273405.45348191,0.02668420,0.01303339,-0.99955894
1314273405.50561190,0.02646726,0.01284364,-0.99956717
1314273405.55260062,0.02702244,0.01338808,-0.99954517
1314273405.60208917,0.02701248,0.01334404,-0.99954603
1314273405.65248680,0.02700679,0.01325540,-0.99954736
1314273405.70149994,0.02709309,0.01319910,-0.99954577
1314273405.75274634,0.02701948,0.01303145,-0.99954996
1314273405.80188847,0.02711736,0.01267646,-0.99955188
1314273405.85371828,0.02703162,0.01282220,-0.99955234
1314273405.90154195,0.02676007,0.01278877,-0.99956008
1314273405.94160604,0.02698522,0.01272357,-0.99955486
1314273406.00462437,0.02695357,0.01280041,-0.99955473
1314273406.05251312,0.02624820,0.01302548,-0.99957059
1314273406.10160732,0.02631276,0.01301116,-0.99956908
1314273406.15248466,0.02647680,0.01298982,-0.99956503
1314273406.20447922,0.02646254,0.01286634,-0.99956700
1314273406.25378108,0.02613044,0.01297218,-0.99957437
1314273406.30160666,0.02576802,0.01358981,-0.99957557
1314273406.35362935,0.02564908,0.01358296,-0.99957873
1314273406.40176272,0.02576074,0.01356470,-0.99957610
1314273406.45249128,0.02573579,0.01353118,-0.99957720
1314273406.50163531,0.02498966,0.01421172,-0.99958669
1314273406.55349398,0.02476070,0.01452915,-0.99958782
1314273406.60471034,0.02498261,0.01467935,-0.99958010
1314273406.65366292,0.02490444,0.01484263,-0.99957964
1314273406.70162582,0.02471760,0.01468156,-0.99958666
1314273406.75264668,0.02466068,0.01475971,-0.99958692
1314273406.80164909,0.02406689,0.01462541,-0.99960336
1314273406.85262585,0.02392425,0.01460384,-0.99960710
1314273406.90159249,0.02380704,0.01485671,-0.99960617
1314273406.95244479,0.02377345,0.01499551,-0.99960490
1314273407.00449562,0.02342988,0.01495385,-0.99961364
1314273407.05352998,0.02326752,0.01479634,-0.99961977
1314273407.09403825,0.02337140,0.01475369,-0.99961798
1314273407.15248156,0.02316033,0.01458756,-0.99962533
1314273407.20240164,0.02310980,0.01448399,-0.99962801
1314273407.25248909,0.02277574,0.01460115,-0.99963397
1314273407.30151248,0.02343779,0.01447922,-0.99962044
1314273407.35247946,0.02345493,0.01427796,-0.99962293
1314273407.40448451,0.02327196,0.01429025,-0.99962703
1314273407.45386815,0.02327351,0.01421287,-0.99962810
1314273407.50549054,0.02313751,0.01429494,-0.99963009
1314273407.55249381,0.02274691,0.01478125,-0.99963198
1314273407.60358024,0.02299075,0.01485420,-0.99962532
1314273407.65246868,0.02286861,0.01475449,-0.99962960
1314273407.70154047,0.02311282,0.01476523,-0.99962382
1314273407.75346422,0.02267210,0.01496617,-0.99963093
1314273407.80160308,0.02202820,0.01530328,-0.99964022
1314273407.85376382,0.02196976,0.01534064,-0.99964093
1314273407.90223813,0.02188867,0.01539648,-0.99964185
1314273407.94162226,0.02199768,0.01539723,-0.99963945
1314273408.00716805,0.02209800,0.01562355,-0.99963372
1314273408.05245161,0.02218751,0.01582142,-0.99962863
1314273408.10463238,0.02229569,0.01606862,-0.99962228
1314273408.15246868,0.02229444,0.01610064,-0.99962179
1314273408.20161366,0.02247282,0.01585811,-0.99962167
1314273408.25383377,0.02268846,0.01598764,-0.99961474
1314273408.30521202,0.02309771,0.01619893,-0.99960197
1314273408.35251141,0.02304687,0.01637523,-0.99960027
1314273408.40199733,0.02299112,0.01639483,-0.99960123
1314273408.45266414,0.02292146,0.01626012,-0.99960503
1314273408.50549102,0.02300464,0.01617046,-0.99960457
1314273408.54448962,0.02410555,0.01596516,-0.99958193
1314273408.60161614,0.02410129,0.01588195,-0.99958336
1314273408.65370035,0.02432732,0.01603719,-0.99957540
1314273408.69345045,0.02416691,0.01605248,-0.99957905
1314273408.75360274,0.02416546,0.01601736,-0.99957965
1314273408.80368447,0.02429610,0.01559546,-0.99958315
1314273408.84198618,0.02437489,0.01571518,-0.99957936
1314273408.90451670,0.02413116,0.01581033,-0.99958377
1314273408.94147062,0.02421267,0.01582905,-0.99958151
1314273409.00150442,0.02420193,0.01596565,-0.99957959
1314273409.05371094,0.02428112,0.01587805,-0.99957907
1314273409.10453582,0.02403629,0.01595683,-0.99958373
1314273409.15260315,0.02414619,0.01560085,-0.99958670
1314273409.20453978,0.02429585,0.01559738,-0.99958313
1314273409.25366044,0.02436898,0.01558796,-0.99958150
1314273409.30169678,0.02425245,0.01542438,-0.99958687
1314273409.35255122,0.02408851,0.01538849,-0.99959139
1314273409.40147614,0.02407563,0.01511015,-0.99959594
1314273409.45368743,0.02386068,0.01507524,-0.99960162
1314273409.50486231,0.02399531,0.01491301,-0.99960083
1314273409.55246401,0.02456505,0.01493881,-0.99958661
1314273409.60222578,0.02467477,0.01492696,-0.99958408
1314273409.65352368,0.02507858,0.01513879,-0.99957085
1314273409.69245434,0.02511367,0.01552672,-0.99956402
1314273409.75245118,0.02505986,0.01553664,-0.99956521
1314273409.80457258,0.02443287,0.01568305,-0.99957845
1314273409.85352087,0.02438112,0.01547887,-0.99958290
1314273409.90149236,0.02443569,0.01554669,-0.99958051
1314273409.94151402,0.02474886,0.01549968,-0.99957354
1314273410.00156546,0.02453210,0.01558250,-0.99957759
1314273410.05250645,0.02426594,0.01586657,-0.99957962
1314273410.10057425,0.02427152,0.01603762,-0.99957675
1314273410.15246606,0.02414212,0.01603361,-0.99957995
1314273410.20055795,0.02427364,0.01614540,-0.99957497
1314273410.25366783,0.02411694,0.01620784,-0.99957775
1314273410.30046129,0.02411124,0.01724088,-0.99956060
1314273410.35261345,0.02406609,0.01732910,-0.99956017
1314273410.40243673,0.02397033,0.01733446,-0.99956237
1314273410.45255923,0.02393939,0.01727083,-0.99956422
1314273410.50447845,0.02371908,0.01713220,-0.99957185
1314273410.55278134,0.02353861,0.01758272,-0.99956830
1314273410.60451555,0.02352000,0.01768562,-0.99956692
1314273410.65364456,0.02341683,0.01782012,-0.99956695
1314273410.70447254,0.02339836,0.01779356,-0.99956786
1314273410.75362563,0.02311647,0.01807084,-0.99956944
1314273410.80579209,0.02193678,0.01793591,-0.99959846
1314273410.85362840,0.02218300,0.01784072,-0.99959473
1314273410.90161204,0.02224831,0.01799111,-0.99959058
1314273410.95247817,0.02228202,0.01790332,-0.99959141
1314273411.00519371,0.02228259,0.01801994,-0.99958930
1314273411.05349731,0.02166126,0.01814766,-0.99960065
1314273411.10114622,0.02161290,0.01814387,-0.99960176
1314273411.15360975,0.02173882,0.01831488,-0.99959591
1314273411.20160794,0.02175784,0.01812154,-0.99959902
1314273411.25361657,0.02154642,0.01809842,-0.99960402
1314273411.30449247,0.02086848,0.01884758,-0.99960456
1314273411.35256958,0.02090319,0.01879181,-0.99960488
1314273411.40458298,0.02096363,0.01883860,-0.99960274
1314273411.45348430,0.02118133,0.01877723,-0.99959930
1314273411.50459814,0.02096280,0.01818140,-0.99961492
1314273411.55361891,0.02078938,0.01812176,-0.99961963
1314273411.60201931,0.02059031,0.01832163,-0.99962011
1314273411.65258932,0.02079343,0.01809817,-0.99961997
1314273411.70150614,0.02082341,0.01808137,-0.99961965
1314273411.75244117,0.02073075,0.01832101,-0.99961722
1314273411.80449367,0.02118709,0.01829879,-0.99960805
1314273411.85351443,0.02130660,0.01823171,-0.99960674
1314273411.89353442,0.02146183,0.01819192,-0.99960414
1314273411.94521952,0.02165846,0.01810072,-0.99960156
1314273412.00162101,0.02128337,0.01830211,-0.99960595
1314273412.05363202,0.02187385,0.01821812,-0.99959474
1314273412.10548329,0.02181302,0.01828832,-0.99959478
1314273412.15249515,0.02204124,0.01814595,-0.99959237
1314273412.20504642,0.02226613,0.01816808,-0.99958698
1314273412.25346327,0.02210052,0.01851891,-0.99958422
1314273412.30539632,0.02284752,0.01889655,-0.99956036
1314273412.35258174,0.02291027,0.01875571,-0.99956158
1314273412.40775609,0.02315530,0.01903247,-0.99955070
1314273412.45276022,0.02292841,0.01879298,-0.99956046
1314273412.50451207,0.02473627,0.01877351,-0.99951772
1314273412.55248523,0.02473782,0.01893998,-0.99951454
1314273412.60449719,0.02450204,0.01886700,-0.99952173
1314273412.65345073,0.02445621,0.01900320,-0.99952027
1314273412.70446873,0.02445232,0.01918911,-0.99951681
1314273412.75260282,0.02418212,0.01921399,-0.99952291
1314273412.80678058,0.02397787,0.01893186,-0.99953321
1314273412.85349345,0.02385730,0.01887042,-0.99953726
1314273412.90458727,0.02392812,0.01880880,-0.99953673
1314273412.95346546,0.02386499,0.01889872,-0.99953654
1314273413.00045943,0.02387401,0.01863378,-0.99954130
1314273413.05358672,0.02364600,0.01871971,-0.99954512
1314273413.10147667,0.02398120,0.01864837,-0.99953846
1314273413.15356088,0.02406861,0.01850802,-0.99953897
1314273413.20447898,0.02404395,0.01846570,-0.99954035
1314273413.25355649,0.02368871,0.01902630,-0.99953832
1314273413.30120850,0.02378180,0.01924508,-0.99953192
1314273413.35246277,0.02394449,0.01939334,-0.99952517
1314273413.40150428,0.02408764,0.01912027,-0.99952699
1314273413.45367527,0.02421344,0.01904782,-0.99952533
1314273413.50450349,0.02421399,0.01880085,-0.99952999
1314273413.55250835,0.02399143,0.01865982,-0.99953800
1314273413.60350823,0.02395042,0.01885042,-0.99953541
1314273413.65256166,0.02401358,0.01861668,-0.99953828
1314273413.70446587,0.02418639,0.01873303,-0.99953194
1314273413.75247908,0.02452629,0.01820085,-0.99953349
1314273413.80160713,0.02450815,0.01838441,-0.99953057
1314273413.85371065,0.02464173,0.01845605,-0.99952597
1314273413.89364600,0.02472489,0.01844388,-0.99952414
1314273413.94161034,0.02454160,0.01830177,-0.99953127
1314273414.00217819,0.02436324,0.01832080,-0.99953528
1314273414.05251265,0.02425566,0.01760195,-0.99955082
1314273414.10449243,0.02410651,0.01739556,-0.99955804
1314273414.15249014,0.02405372,0.01739288,-0.99955936
1314273414.20473981,0.02413845,0.01744263,-0.99955645
1314273414.25355864,0.02424221,0.01699171,-0.99956170
1314273414.30445361,0.02432662,0.01707401,-0.99955825
1314273414.35349035,0.02413430,0.01719335,-0.99956087
1314273414.40446711,0.02420845,0.01743445,-0.99955490
1314273414.45246124,0.02451265,0.01737001,-0.99954860
1314273414.50548100,0.02469895,0.01725563,-0.99954600
1314273414.55245113,0.02532908,0.01726017,-0.99953015
1314273414.60148764,0.02545631,0.01732281,-0.99952584
1314273414.65363216,0.02560483,0.01741684,-0.99952041
1314273414.70147061,0.02560967,0.01750944,-0.99951867
1314273414.75245142,0.02572001,0.01742131,-0.99951737
1314273414.80392694,0.02550943,0.01771402,-0.99951762
1314273414.85346627,0.02581397,0.01750461,-0.99951350
1314273414.90444112,0.02581323,0.01760928,-0.99951168
1314273414.94549823,0.02591482,0.01776399,-0.99950631
1314273415.00451565,0.02596301,0.01770277,-0.99950615
1314273415.05356669,0.02538185,0.01843591,-0.99950782
1314273415.10496926,0.02550521,0.01836567,-0.99950597
1314273415.15260053,0.02548908,0.01845984,-0.99950465
1314273415.20177555,0.02517233,0.01814857,-0.99951838
1314273415.25247812,0.02527981,0.01876377,-0.99950430
1314273415.30852199,0.02536025,0.01889346,-0.99949982
1314273415.34452152,0.02530121,0.01894745,-0.99950030
1314273415.40459824,0.02524571,0.01914304,-0.99949797
1314273415.45350003,0.02512077,0.01902188,-0.99950343
1314273415.50446868,0.02595966,0.01895137,-0.99948334
1314273415.55245852,0.02596481,0.01904043,-0.99948151
1314273415.60446596,0.02587786,0.01892774,-0.99948591
1314273415.65249324,0.02577317,0.01917483,-0.99948390
1314273415.70060325,0.02576605,0.01893438,-0.99948867
1314273415.75248575,0.02585936,0.01888040,-0.99948728
1314273415.80162072,0.02514423,0.01883737,-0.99950634
1314273415.85356998,0.02489538,0.01888351,-0.99951170
1314273415.90500116,0.02504725,0.01915911,-0.99950266
1314273415.94555783,0.02497956,0.01899518,-0.99950748
1314273416.00054479,0.02521219,0.01922766,-0.99949719
1314273416.05249310,0.02550962,0.01929131,-0.99948842
1314273416.10062194,0.02561731,0.01911851,-0.99948899
1314273416.15248585,0.02542053,0.01907413,-0.99949486
1314273416.20052981,0.02538410,0.01913011,-0.99949472
1314273416.25348020,0.02562044,0.01926171,-0.99948616
1314273416.30147147,0.02561647,0.01917297,-0.99948797
1314273416.35359240,0.02554471,0.01923371,-0.99948864
1314273416.40248251,0.02563472,0.01929798,-0.99948509
1314273416.45244145,0.02588258,0.01934740,-0.99947775
1314273416.50847220,0.02644240,0.01876591,-0.99947418
